Location: Aldenham
(51.6667°N, 0.3500°W)
Time: 16:27:44
(UTC+00:00)

Cosmos 2344 - Pass Details

Date: 18 November 2025
Orbit: 1197 x 3045 km, 63.3° (Epoch: 09 December)

Event Time Altitude Azimuth Distance (km) Brightness Sun altitude
Rises 18:20:56 0° 313° (NW) 4,160 6.9 -20.4°
Reaches altitude 10° 18:23:27 10° 314° (NW) 3,260 6.2 -20.7°
Maximum altitude 18:31:11 81° 43° (NE) 1,495 3.8 -21.9°
Enters shadow 18:38:35 21° 130° (SE) 3,299 5.3 -23.1°
